Location: Aldenham
(51.6667°N, 0.3500°W)
Time: 13:06:29
(UTC+00:00)

A-11 Canister half - Pass Details

Date: 19 February 2026
Orbit: 1513 x 1686 km, 47.2° (Epoch: 17 March)

Event Time Altitude Azimuth Distance (km) Brightness Sun altitude
Rises 04:43:34 0° 284° (WNW) 4,838 - -23.0°
Reaches altitude 10° 04:49:06 10° 260° (W) 3,806 - -22.1°
Maximum altitude 04:52:51 13° 236° (WSW) 3,542 - -21.6°
Drops below altitude 10° 04:56:34 10° 213° (SSW) 3,744 - -21.0°
Exits shadow 04:56:49 10° 211° (SSW) 3,772 10.7 -20.9°
Sets 05:01:57 0° 188° (S) 4,688 11.4 -20.2°
